GW1585 Weather Reports


time (UTC)temp
C
wind
direction
speed
KPH
gust
KPH
rain 1hr
cm
rain 24hr
cm
rain mn
cm
humidity
%
barometer
mb
20260506163059 11 0 1.6 6.4 0.00 0.00 0.00 76 1013.4
20260506161559 11 265 1.6 6.4 0.00 0.00 0.00 75 1013.4
20260506160055 11 143 0.0 8.0 0.00 0.00 0.00 75 1013.4
20260506154612 11 279 0.0 9.7 0.00 0.00 0.00 75 1013.5
20260506153056 11 262 1.6 6.4 0.00 0.00 0.00 74 1013.5
20260506151558 12 12 1.6 8.0 0.00 0.00 0.00 73 1013.3
20260506150057 12 264 3.2 8.0 0.00 0.00 0.00 73 1013.3
20260506144606 12 1 1.6 6.4 0.00 0.00 0.00 73 1013.3
20260506143055 12 131 1.6 6.4 0.00 0.00 0.00 72 1013.4
20260506141601 12 326 1.6 9.7 0.00 0.00 0.00 71 1013.3
20260506140058 13 360 1.6 9.7 0.00 0.00 0.00 72 1013.4
20260506134556 13 332 1.6 9.7 0.00 0.00 0.00 71 1013.3
20260506133116 13 0 0.0 8.0 0.00 0.00 0.00 74 1013.3
20260506131555 13 329 1.6 6.4 0.00 0.00 0.00 70 1013.2
20260506130120 13 52 1.6 6.4 0.00 0.00 0.00 73 1013.1
20260506124559 12 188 0.0 4.8 0.00 0.00 0.00 75 1013.1
20260506123054 12 252 3.2 9.7 0.00 0.00 0.00 75 1013.1
20260506121555 12 320 0.0 11.3 0.00 0.00 0.00 75 1013.1
20260506120058 12 101 0.0 6.4 0.00 0.00 0.00 75 1013.1
20260506114604 12 335 3.2 8.0 0.00 0.00 0.00 76 1013.1
20260506113055 12 40 0.0 6.4 0.00 0.00 0.00 74 1013.0
20260506111553 12 96 0.0 9.7 0.00 0.00 0.00 75 1013.0
20260506110054 12 15 1.6 8.0 0.00 0.00 0.00 76 1012.9
20260506104623 12 0 0.0 4.8 0.00 0.00 0.00 76 1013.1
20260506103055 11 0 0.0 3.2 0.00 0.00 0.00 77 1012.9
20260506101557 11 272 0.0 3.2 0.00 0.00 0.00 77 1012.9
20260506100054 11 0 1.6 6.4 0.00 0.00 0.00 78 1013.0
20260506094556 11 329 1.6 8.0 0.00 0.00 0.00 79 1012.8
20260506093059 10 0 1.6 9.7 0.00 0.00 0.00 80 1012.8
20260506091556 10 66 1.6 8.0 0.00 0.00 0.00 79 1012.7
20260506090055 10 0 1.6 9.7 0.00 0.00 0.00 80 1012.6
20260506084555 10 51 1.6 8.0 0.00 0.00 0.00 79 1012.4
20260506083055 10 106 3.2 9.7 0.00 0.00 0.00 79 1012.3
20260506081600 10 18 1.6 4.8 0.00 0.00 0.00 80 1012.2
20260506080111 10 0 1.6 8.0 0.00 0.00 0.00 80 1012.1
20260506073057 9 349 3.2 9.7 0.00 0.00 0.00 81 1012.2
20260506071621 9 345 0.0 11.3 0.00 0.00 0.00 82 1012.2
20260506061556 9 350 0.0 8.0 0.00 0.00 0.00 81 1011.9
20260506044612 8 329 1.6 8.0 0.00 0.00 0.00 83 1011.6
20260506043059 8 332 1.6 8.0 0.00 0.00 0.00 83 1011.7
20260506041558 8 360 0.0 8.0 0.00 0.00 0.00 83 1011.7
20260506040059 8 286 0.0 4.8 0.00 0.00 0.00 83 1011.8
20260506034601 8 0 0.0 3.2 0.00 0.00 0.00 83 1011.9
20260506033055 9 129 0.0 3.2 0.00 0.00 0.00 83 1012.1
20260506031559 9 0 0.0 4.8 0.00 0.00 0.00 83 1012.2
20260506030056 9 0 0.0 3.2 0.00 0.00 0.00 82 1012.2
20260506024555 9 309 0.0 9.7 0.00 0.00 0.00 82 1012.3
20260506023055 10 139 1.6 9.7 0.00 0.00 0.00 81 1012.2
20260506021558 10 136 1.6 6.4 0.00 0.00 0.00 81 1012.4
20260506020055 10 117 1.6 8.0 0.00 0.00 0.00 79 1012.4
20260506014556 10 319 1.6 9.7 0.00 0.00 0.00 79 1012.3
20260506013055 10 260 3.2 11.3 0.00 0.00 0.00 77 1012.4
20260506011556 10 253 3.2 9.7 0.00 0.00 0.00 78 1012.5
20260506010058 10 322 3.2 8.0 0.00 0.00 0.00 78 1012.5
20260506004554 10 248 3.2 8.0 0.00 0.00 0.00 80 1012.7
20260506003112 10 238 3.2 12.9 0.00 0.00 0.00 80 1012.5
20260506001611 10 33 3.2 11.3 0.00 0.00 0.00 81 1012.7
20260506000058 10 304 1.6 9.7 0.00 0.00 0.00 82 1012.7
20260505234611 10 248 4.8 9.7 0.00 0.00 0.00 81 1012.8
20260505233053 10 120 3.2 12.9 0.00 0.00 0.00 82 1012.9
20260505231600 10 269 3.2 9.7 0.00 0.00 0.00 83 1012.8
20260505230058 10 249 3.2 9.7 0.00 0.00 0.00 82 1012.9
20260505224554 10 251 4.8 11.3 0.00 0.00 0.00 82 1013.0
20260505223108 10 261 3.2 8.0 0.00 0.00 0.00 82 1012.9
20260505221557 10 263 3.2 9.7 0.00 0.00 0.00 83 1012.9
20260505220059 10 174 3.2 9.7 0.00 0.00 0.00 82 1012.9
20260505214602 10 257 4.8 14.5 0.00 0.00 0.00 81 1013.0
20260505213055 10 307 4.8 8.0 0.00 0.00 0.00 81 1013.0
20260505211617 10 160 1.6 8.0 0.00 0.00 0.00 82 1013.0
20260505210058 10 321 3.2 8.0 0.00 0.00 0.00 82 1013.1
20260505204556 10 324 3.2 8.0 0.00 0.00 0.00 82 1013.0
20260505203121 10 267 3.2 12.9 0.00 0.00 0.00 82 1012.9
20260505201555 10 220 3.2 9.7 0.00 0.00 0.00 81 1012.7
20260505200058 10 256 3.2 8.0 0.00 0.00 0.00 82 1012.5
20260505194558 10 340 1.6 6.4 0.00 0.00 0.00 82 1012.4
20260505193054 10 257 1.6 6.4 0.00 0.00 0.00 82 1012.2
20260505191556 10 0 1.6 8.0 0.00 0.00 0.00 81 1012.2
20260505190056 10 0 1.6 8.0 0.00 0.00 0.00 81 1012.1
20260505184555 10 292 3.2 8.0 0.00 0.00 0.00 81 1012.2
20260505183054 11 266 1.6 8.0 0.00 0.00 0.00 80 1012.2
20260505181555 11 223 1.6 8.0 0.00 0.00 0.00 79 1012.2
20260505180057 11 303 1.6 6.4 0.00 0.00 0.00 78 1012.2
20260505174556 11 0 1.6 11.3 0.00 0.00 0.00 77 1012.1
20260505173056 11 0 1.6 3.2 0.00 0.00 0.00 77 1012.2
20260505171558 12 82 0.0 8.0 0.00 0.00 0.00 76 1012.2
20260505170055 12 118 1.6 8.0 0.00 0.00 0.00 74 1012.2
20260505164556 12 138 1.6 4.8 0.00 0.00 0.00 73 1012.3